Location: Unspecified
(48.7670°N, 0.0000°E)
Time: 10:28:12
(UTC+00:00)

Courier 1B - Pass Details

Date: 27 June 2019
Orbit: 962 x 1209 km, 28.3° (Epoch: 16 August)

Event Time Altitude Azimuth Distance (km) Brightness Sun altitude
Rises 19:39:45 0° 239° (WSW) 3,821 11.0 2.9°
Reaches altitude 10° 19:44:46 10° 209° (SSW) 2,932 10.0 2.2°
Maximum altitude 19:46:56 12° 191° (S) 2,847 9.7 1.9°
Drops below altitude 10° 19:49:09 10° 173° (S) 2,987 9.7 1.6°
Sets 19:54:25 0° 143° (SE) 4,008 10.1 0.9°
